When you browse on this site, cookies collect data to enhance your experience and personalize the content and advertising you see.
Visit our Privacy Policy to learn more. By continuing to use the site, you agree to this use of cookies and data.
  • In Spain
  • List of Countries
  • For 7 days
  • Water Temperature
  • Satellite Maps
  • Weather Map
  • Weather Widgets
  • user-avatar
    Login

    Hourly Weather Hobart

    Today, 17 February, Sunday

    Time Temperature Precipitation Wind Pressure Humidity
    00:00 +15°C° 0 mm 1 mps 746 mmHg 93%
    01:00 +15°C° 0 mm 1 mps 746 mmHg 94%
    02:00 +14°C° 0 mm 0 mps 746 mmHg 93%
    03:00 +14°C° 0 mm 0 mps 745 mmHg 93%
    04:00 +13°C° 0 mm 0 mps 745 mmHg 94%
    05:00 +14°C° 0 mm 0 mps 745 mmHg 92%
    06:00 +14°C° 0 mm 0 mps 745 mmHg 90%
    07:00 +14°C° 0 mm 0 mps 745 mmHg 89%
    08:00 +18°C° 0 mm 1 mps 745 mmHg 75%
    09:00 +21°C° 0 mm 1 mps 744 mmHg 62%
    10:00 +23°C° 0 mm 2 mps 744 mmHg 49%
    11:00 +24°C° 0 mm 2 mps 743 mmHg 45%
    12:00 +26°C° 0 mm 2 mps 743 mmHg 40%
    13:00 +28°C° 0 mm 2 mps 743 mmHg 35%
    14:00 +27°C° 0 mm 2 mps 742 mmHg 38%
    15:00 +26°C° 0 mm 2 mps 742 mmHg 41%
    16:00 +26°C° 0 mm 4 mps 741 mmHg 42%
    17:00 +23°C° 0 mm 4 mps 741 mmHg 49%
    18:00 +21°C° 0 mm 3 mps 741 mmHg 57%
    19:00 +20°C° 0 mm 3 mps 741 mmHg 64%
    20:00 +19°C° 0 mm 3 mps 741 mmHg 68%
    21:00 +18°C° 0 mm 2 mps 741 mmHg 72%
    22:00 +17°C° 0 mm 2 mps 740 mmHg 76%
    23:00 +17°C° 0 mm 2 mps 740 mmHg 78%

    Tomorrow, 18 February, Monday

    Time Temperature Precipitation Wind Pressure Humidity
    00:00 +16°C° 0 mm 2 mps 740 mmHg 81%
    01:00 +16°C° 0 mm 2 mps 739 mmHg 83%
    02:00 +16°C° 0 mm 2 mps 739 mmHg 82%
    03:00 +16°C° 0 mm 2 mps 739 mmHg 81%
    04:00 +16°C° 0 mm 2 mps 738 mmHg 80%
    05:00 +17°C° 0.1 mm 2 mps 738 mmHg 79%
    06:00 +18°C° 0.1 mm 1 mps 738 mmHg 77%
    07:00 +18°C° 0.1 mm 1 mps 738 mmHg 76%
    08:00 +19°C° 0 mm 2 mps 738 mmHg 67%
    09:00 +20°C° 0 mm 4 mps 737 mmHg 58%
    10:00 +21°C° 0 mm 5 mps 737 mmHg 49%
    11:00 +21°C° 0 mm 5 mps 737 mmHg 48%
    12:00 +20°C° 0 mm 6 mps 737 mmHg 47%
    13:00 +20°C° 0 mm 7 mps 736 mmHg 46%
    14:00 +18°C° 0 mm 7 mps 736 mmHg 49%
    15:00 +16°C° 0 mm 7 mps 736 mmHg 52%
    16:00 +15°C° 0 mm 7 mps 736 mmHg 55%
    17:00 +14°C° 0 mm 6 mps 737 mmHg 57%
    18:00 +14°C° 0 mm 6 mps 737 mmHg 59%
    19:00 +13°C° 0 mm 6 mps 738 mmHg 61%
    20:00 +12°C° 0 mm 5 mps 738 mmHg 65%
    21:00 +11°C° 0 mm 4 mps 739 mmHg 68%
    22:00 +10°C° 0 mm 3 mps 739 mmHg 72%
    23:00 +9°C° 0 mm 3 mps 739 mmHg 73%

    Day after tomorrow, 19 February, Tuesday

    Time Temperature Precipitation Wind Pressure Humidity
    00:00 +9°C° 0 mm 3 mps 739 mmHg 74%
    01:00 +9°C° 0 mm 3 mps 739 mmHg 74%
    02:00 +9°C° 0 mm 3 mps 739 mmHg 72%
    03:00 +10°C° 0 mm 3 mps 740 mmHg 70%
    04:00 +10°C° 0 mm 3 mps 740 mmHg 68%
    05:00 +11°C° 0 mm 4 mps 740 mmHg 65%
    06:00 +11°C° 0 mm 4 mps 740 mmHg 63%
    07:00 +12°C° 0 mm 5 mps 741 mmHg 61%
    08:00 +13°C° 0 mm 5 mps 741 mmHg 57%
    09:00 +14°C° 0 mm 6 mps 741 mmHg 54%
    10:00 +14°C° 0 mm 6 mps 742 mmHg 50%
    11:00 +15°C° 0 mm 6 mps 742 mmHg 48%
    12:00 +16°C° 0 mm 5 mps 742 mmHg 46%
    13:00 +17°C° 0 mm 5 mps 742 mmHg 44%
    14:00 +17°C° 0 mm 5 mps 742 mmHg 45%
    15:00 +16°C° 0 mm 5 mps 742 mmHg 47%
    16:00 +17°C° 0 mm 4 mps 742 mmHg 48%
    17:00 +16°C° 0 mm 3 mps 743 mmHg 52%
    18:00 +14°C° 0 mm 3 mps 743 mmHg 55%
    19:00 +14°C° 0 mm 2 mps 743 mmHg 59%
    20:00 +13°C° 0 mm 2 mps 744 mmHg 66%
    21:00 +12°C° 0 mm 2 mps 744 mmHg 73%
    22:00 +9°C° 0 mm 2 mps 744 mmHg 79%
    23:00 +9°C° 0 mm 2 mps 744 mmHg 82%

    20 February, Wednesday

    Time Temperature Precipitation Wind Pressure Humidity
    00:00 +9°C° 0 mm 2 mps 744 mmHg 84%
    01:00 +9°C° 0 mm 2 mps 744 mmHg 87%
    02:00 +8°C° 0 mm 2 mps 744 mmHg 87%
    03:00 +8°C° 0 mm 2 mps 743 mmHg 88%
    04:00 +8°C° 0 mm 2 mps 743 mmHg 88%
    05:00 +9°C° 0 mm 2 mps 743 mmHg 83%
    06:00 +10°C° 0 mm 2 mps 742 mmHg 78%
    07:00 +11°C° 0 mm 3 mps 742 mmHg 73%
    08:00 +13°C° 0 mm 3 mps 742 mmHg 67%
    09:00 +15°C° 0 mm 4 mps 742 mmHg 61%
    10:00 +17°C° 0 mm 5 mps 742 mmHg 54%
    11:00 +17°C° 0 mm 5 mps 742 mmHg 54%
    12:00 +19°C° 0 mm 5 mps 742 mmHg 54%
    13:00 +19°C° 0 mm 6 mps 741 mmHg 54%
    14:00 +17°C° 0.1 mm 5 mps 741 mmHg 57%
    15:00 +17°C° 0.1 mm 4 mps 741 mmHg 61%
    16:00 +17°C° 0.1 mm 3 mps 741 mmHg 65%
    17:00 +16°C° 0.2 mm 3 mps 742 mmHg 70%
    18:00 +14°C° 0.2 mm 3 mps 742 mmHg 75%
    19:00 +14°C° 0.2 mm 2 mps 742 mmHg 81%
    20:00 +13°C° 0.1 mm 2 mps 743 mmHg 80%
    21:00 +12°C° 0.1 mm 2 mps 743 mmHg 80%
    22:00 +11°C° 0.1 mm 3 mps 744 mmHg 80%
    23:00 +11°C° 0.1 mm 3 mps 743 mmHg 81%

    21 February, Thursday

    Time Temperature Precipitation Wind Pressure Humidity
    00:00 +10°C° 0.1 mm 2 mps 743 mmHg 82%
    01:00 +10°C° 0.1 mm 2 mps 743 mmHg 82%
    02:00 +10°C° 0 mm 3 mps 743 mmHg 83%
    03:00 +9°C° 0 mm 3 mps 743 mmHg 83%
    04:00 +9°C° 0 mm 3 mps 743 mmHg 84%
    05:00 +9°C° 0 mm 3 mps 744 mmHg 82%
    06:00 +10°C° 0 mm 3 mps 744 mmHg 80%
    07:00 +10°C° 0 mm 4 mps 745 mmHg 78%
    08:00 +11°C° 0.1 mm 4 mps 745 mmHg 72%
    09:00 +13°C° 0.1 mm 5 mps 746 mmHg 67%
    10:00 +14°C° 0.1 mm 5 mps 746 mmHg 61%
    11:00 +15°C° 0.1 mm 5 mps 747 mmHg 55%
    12:00 +16°C° 0.1 mm 5 mps 747 mmHg 48%
    13:00 +17°C° 0.1 mm 5 mps 747 mmHg 42%
    14:00 +16°C° 0 mm 5 mps 747 mmHg 42%
    15:00 +16°C° 0 mm 5 mps 748 mmHg 43%
    16:00 +16°C° 0 mm 5 mps 748 mmHg 43%
    17:00 +15°C° 0 mm 4 mps 749 mmHg 47%
    18:00 +13°C° 0 mm 4 mps 750 mmHg 51%
    19:00 +12°C° 0 mm 3 mps 750 mmHg 55%
    20:00 +12°C° 0 mm 2 mps 751 mmHg 62%
    21:00 +9°C° 0 mm 2 mps 752 mmHg 69%
    22:00 +8°C° 0 mm 2 mps 752 mmHg 75%
    23:00 +8°C° 0 mm 1 mps 752 mmHg 79%

    22 February, Friday

    Time Temperature Precipitation Wind Pressure Humidity
    00:00 +8°C° 0 mm 1 mps 753 mmHg 83%
    01:00 +7°C° 0 mm 1 mps 753 mmHg 87%
    02:00 +7°C° 0 mm 1 mps 753 mmHg 89%
    03:00 +6°C° 0 mm 1 mps 753 mmHg 91%
    04:00 +6°C° 0 mm 1 mps 753 mmHg 93%
    05:00 +7°C° 0 mm 1 mps 753 mmHg 88%
    06:00 +8°C° 0 mm 1 mps 754 mmHg 83%
    07:00 +8°C° 0 mm 1 mps 754 mmHg 78%
    08:00 +12°C° 0 mm 1 mps 754 mmHg 64%
    09:00 +15°C° 0 mm 1 mps 754 mmHg 49%
    10:00 +20°C° 0 mm 1 mps 755 mmHg 35%
    11:00 +22°C° 0 mm 1 mps 754 mmHg 31%
    12:00 +24°C° 0 mm 1 mps 754 mmHg 27%
    13:00 +26°C° 0 mm 1 mps 754 mmHg 23%
    14:00 +25°C° 0 mm 2 mps 753 mmHg 26%
    15:00 +24°C° 0 mm 3 mps 753 mmHg 29%
    16:00 +22°C° 0 mm 3 mps 753 mmHg 32%
    17:00 +20°C° 0 mm 3 mps 753 mmHg 43%
    18:00 +17°C° 0 mm 2 mps 754 mmHg 54%
    19:00 +15°C° 0 mm 2 mps 754 mmHg 65%
    20:00 +13°C° 0 mm 1 mps 754 mmHg 73%
    21:00 +12°C° 0 mm 1 mps 755 mmHg 81%
    22:00 +10°C° 0 mm 0 mps 755 mmHg 90%
    23:00 +10°C° 0 mm 1 mps 755 mmHg 91%
    Show more